Location: Bieujac
(44.5398°N, 0.1549°W)
Time: 06:10:03
(UTC+00:00)

STARLINK-25 - Pass Details

Date: 17 November 2019
Orbit: 529 x 531 km, 53.0° (Epoch: 06 December)

Event Time Altitude Azimuth Distance (km) Brightness Sun altitude
Exits shadow 03:54:20 10° 134° (SE) 1,781 6.6 -32.8°
Drops below altitude 10° 03:55:57 10° 111° (ESE) 1,816 6.9 -32.5°
Enters shadow 05:01:22 -59° 232° (SW) 11,545 10.3 -20.9°
Maximum altitude 05:34:26 67° 143° (SE) 603 3.9 -15.1°
